Location: Chittendens Corners
(41.2320°N, 81.4940°W)
Time: 08:19:17
(UTC+00:00)

Cosmos 1745 Rocket - Pass Details

Date: 29 October 2020
Orbit: 953 x 997 km, 83.0° (Epoch: 28 November)

Event Time Altitude Azimuth Distance (km) Brightness Sun altitude
Rises 23:22:27 0° 357° (N) 3,696 7.0 -11.5°
Reaches altitude 10° 23:25:04 10° 3° (N) 2,750 6.3 -11.9°
Maximum altitude 23:31:11 49° 78° (ENE) 1,253 4.2 -13.1°
Drops below altitude 10° 23:37:17 10° 153° (SSE) 2,754 6.2 -14.2°
Sets 23:39:54 0° 158° (SSE) 3,701 6.9 -14.7°
